| time (UTC) | temp F | wind direction | speed knots | gust knots | rain 1hr in | rain 24hr in | rain mn in | humidity % | barometer mb |
| 20260504100507 | 39 | 138 | 5.2 | 17.4 | 0.02 | 0.76 | 0.11 | 90 | 982.0 |
| 20260504082005 | 38 | 123 | 7.0 | 17.4 | 0.01 | 0.74 | 0.08 | 91 | 978.0 |
| 20260504081508 | 38 | 348 | 7.8 | 17.4 | 0.01 | 0.74 | 0.08 | 91 | 977.9 |
| 20260504081005 | 38 | 7 | 9.6 | 17.4 | 0.01 | 0.74 | 0.08 | 91 | 977.8 |
| 20260504080509 | 38 | 180 | 7.8 | 19.1 | 0.02 | 0.74 | 0.08 | 91 | 977.8 |
| 20260504050505 | 39 | 140 | 13.0 | 21.7 | 0.02 | 0.69 | 0.03 | 93 | 974.9 |
| 20260504050009 | 39 | 130 | 12.2 | 22.6 | 0.02 | 0.69 | 0.03 | 93 | 975.0 |
| 20260504045606 | 39 | 164 | 13.0 | 22.6 | 0.02 | 0.69 | 0.03 | 93 | 975.2 |
| 20260504045004 | 39 | 125 | 13.0 | 23.5 | 0.02 | 0.69 | 0.02 | 93 | 975.9 |
| 20260504044514 | 39 | 147 | 11.3 | 23.5 | 0.02 | 0.69 | 0.02 | 92 | 976.4 |
| 20260504044105 | 39 | 159 | 11.3 | 21.7 | 0.02 | 0.69 | 0.02 | 92 | 976.5 |
| 20260504043507 | 39 | 128 | 12.2 | 21.7 | 0.02 | 0.68 | 0.02 | 92 | 976.8 |
| 20260504043020 | 39 | 130 | 9.6 | 17.4 | 0.02 | 0.68 | 0.02 | 92 | 976.9 |
| 20260504042505 | 39 | 190 | 8.7 | 21.7 | 0.02 | 0.68 | 0.02 | 92 | 977.3 |
| 20260504042009 | 39 | 147 | 10.4 | 21.7 | 0.01 | 0.67 | 0.01 | 92 | 977.6 |
| 20260504041604 | 39 | 134 | 10.4 | 25.2 | 0.01 | 0.67 | 0.01 | 91 | 977.8 |
| 20260504041007 | 39 | 125 | 12.2 | 25.2 | 0.01 | 0.67 | 0.01 | 91 | 977.9 |
| 20260504040512 | 39 | 147 | 16.5 | 25.2 | 0.01 | 0.67 | 0.01 | 91 | 978.1 |
| 20260504040005 | 39 | 157 | 12.2 | 26.9 | 0.01 | 0.67 | 0.01 | 91 | 978.3 |
| 20260504035508 | 40 | 136 | 15.6 | 26.9 | 0.01 | 0.67 | 0.01 | 90 | 978.6 |
| 20260504034507 | 40 | 141 | 13.0 | 23.5 | 0.00 | 0.66 | 0.00 | 90 | 979.0 |
| 20260504034010 | 40 | 115 | 13.0 | 22.6 | 0.00 | 0.66 | 0.00 | 90 | 979.5 |
| 20260504033506 | 40 | 130 | 11.3 | 26.1 | 0.00 | 0.66 | 0.00 | 89 | 979.5 |
| 20260504033010 | 40 | 128 | 12.2 | 27.8 | 0.00 | 0.66 | 0.00 | 89 | 979.8 |
| 20260504032505 | 40 | 237 | 13.0 | 25.2 | 0.00 | 0.66 | 0.00 | 89 | 979.8 |
| 20260504032010 | 40 | 145 | 11.3 | 22.6 | 0.00 | 0.66 | 0.00 | 88 | 980.0 |
| 20260504031511 | 40 | 167 | 11.3 | 23.5 | 0.00 | 0.66 | 0.00 | 88 | 980.2 |
| 20260504031007 | 41 | 123 | 11.3 | 23.5 | 0.00 | 0.66 | 0.00 | 87 | 980.5 |
| 20260504030510 | 41 | 74 | 13.0 | 23.5 | 0.00 | 0.66 | 0.00 | 87 | 980.9 |
| 20260504030004 | 41 | 127 | 10.4 | 21.7 | 0.00 | 0.66 | 0.00 | 88 | 980.8 |
| 20260504025508 | 41 | 127 | 12.2 | 21.7 | 0.00 | 0.66 | 0.66 | 88 | 981.3 |
| 20260504025004 | 41 | 164 | 7.8 | 17.4 | 0.00 | 0.66 | 0.66 | 88 | 981.4 |
| 20260504024508 | 41 | 196 | 9.6 | 17.4 | 0.00 | 0.66 | 0.66 | 88 | 981.9 |
| 20260504023506 | 42 | 137 | 5.2 | 19.1 | 0.00 | 0.66 | 0.66 | 88 | 982.1 |
| 20260504023009 | 42 | 143 | 7.8 | 20.0 | 0.00 | 0.66 | 0.66 | 89 | 982.4 |
| 20260504022505 | 42 | 119 | 10.4 | 20.0 | 0.00 | 0.66 | 0.66 | 89 | 982.6 |
| 20260504022009 | 42 | 29 | 7.8 | 17.4 | 0.00 | 0.66 | 0.66 | 90 | 982.8 |
| 20260504021512 | 42 | 136 | 7.0 | 22.6 | 0.01 | 0.66 | 0.66 | 90 | 983.0 |
| 20260504021006 | 42 | 157 | 9.6 | 16.5 | 0.01 | 0.66 | 0.66 | 91 | 983.2 |
| 20260504020511 | 42 | 127 | 6.1 | 13.9 | 0.01 | 0.66 | 0.66 | 91 | 983.2 |
| 20260504020006 | 43 | 112 | 5.2 | 15.6 | 0.02 | 0.66 | 0.66 | 92 | 983.5 |
| 20260504015511 | 43 | 152 | 7.0 | 15.6 | 0.02 | 0.66 | 0.66 | 92 | 983.8 |
| 20260504015005 | 43 | 151 | 5.2 | 16.5 | 0.02 | 0.66 | 0.66 | 93 | 984.0 |
| 20260504014510 | 43 | 51 | 5.2 | 18.2 | 0.03 | 0.66 | 0.66 | 93 | 983.9 |
| 20260504014004 | 43 | 121 | 8.7 | 18.2 | 0.03 | 0.66 | 0.66 | 94 | 984.1 |
| 20260504013508 | 43 | 124 | 7.8 | 18.2 | 0.04 | 0.66 | 0.66 | 94 | 984.2 |
| 20260504013010 | 42 | 174 | 10.4 | 19.1 | 0.05 | 0.66 | 0.66 | 94 | 984.3 |
| 20260504012513 | 42 | 133 | 10.4 | 19.1 | 0.05 | 0.66 | 0.66 | 95 | 984.5 |
| 20260504012004 | 41 | 98 | 6.1 | 15.6 | 0.06 | 0.66 | 0.66 | 94 | 984.6 |
| 20260504011509 | 41 | 128 | 7.0 | 14.8 | 0.06 | 0.65 | 0.65 | 94 | 984.7 |
| 20260504011006 | 41 | 133 | 7.8 | 14.8 | 0.07 | 0.65 | 0.65 | 94 | 984.8 |
| 20260504010514 | 41 | 114 | 6.1 | 17.4 | 0.08 | 0.65 | 0.65 | 94 | 985.0 |
| 20260504010003 | 40 | 105 | 6.1 | 17.4 | 0.08 | 0.65 | 0.65 | 94 | 985.1 |
| 20260504005508 | 40 | 121 | 5.2 | 16.5 | 0.09 | 0.65 | 0.65 | 94 | 985.5 |
| 20260504005003 | 40 | 83 | 4.3 | 16.5 | 0.09 | 0.64 | 0.64 | 94 | 985.8 |
| 20260504004508 | 40 | 134 | 6.1 | 16.5 | 0.09 | 0.63 | 0.63 | 94 | 986.2 |
| 20260504004003 | 40 | 148 | 4.3 | 13.0 | 0.09 | 0.62 | 0.62 | 94 | 986.0 |
| 20260504003508 | 40 | 104 | 5.2 | 13.9 | 0.10 | 0.62 | 0.62 | 94 | 986.8 |
| 20260504003003 | 40 | 61 | 5.2 | 14.8 | 0.10 | 0.61 | 0.61 | 94 | 986.9 |
| 20260504002507 | 39 | 50 | 6.1 | 14.8 | 0.11 | 0.61 | 0.61 | 94 | 987.1 |
| 20260504002104 | 39 | 178 | 5.2 | 20.0 | 0.12 | 0.61 | 0.61 | 94 | 987.5 |
| 20260504001608 | 39 | 174 | 4.3 | 20.0 | 0.13 | 0.59 | 0.59 | 94 | 987.9 |
| 20260504001010 | 39 | 116 | 5.2 | 17.4 | 0.13 | 0.56 | 0.56 | 94 | 988.2 |
| 20260504000506 | 39 | 275 | 7.8 | 17.4 | 0.14 | 0.56 | 0.56 | 94 | 988.4 |
| 20260504000006 | 39 | 131 | 5.2 | 14.8 | 0.16 | 0.56 | 0.56 | 94 | 988.8 |
| 20260503235006 | 38 | 160 | 6.1 | 15.6 | 0.17 | 0.54 | 0.54 | 94 | 989.2 |
| 20260503234602 | 38 | 37 | 7.0 | 18.2 | 0.17 | 0.54 | 0.54 | 94 | 989.1 |
| 20260503234006 | 39 | 24 | 7.0 | 25.2 | 0.19 | 0.54 | 0.54 | 94 | 989.2 |
| 20260503233510 | 39 | 17 | 7.0 | 25.2 | 0.18 | 0.52 | 0.52 | 94 | 989.4 |
| 20260503233005 | 39 | 51 | 7.8 | 14.8 | 0.18 | 0.51 | 0.51 | 94 | 989.8 |
| 20260503232509 | 39 | 17 | 8.7 | 16.5 | 0.17 | 0.50 | 0.50 | 94 | 990.2 |
| 20260503232004 | 39 | 99 | 5.2 | 16.5 | 0.17 | 0.48 | 0.48 | 94 | 990.8 |
| 20260503231507 | 39 | 14 | 6.1 | 13.9 | 0.17 | 0.46 | 0.46 | 94 | 991.3 |
| 20260503231103 | 39 | 24 | 6.1 | 13.9 | 0.17 | 0.45 | 0.45 | 94 | 991.7 |
| 20260503230505 | 38 | 122 | 5.2 | 14.8 | 0.16 | 0.43 | 0.43 | 94 | 991.9 |
| 20260503230012 | 38 | 74 | 5.2 | 13.9 | 0.15 | 0.40 | 0.40 | 94 | 992.3 |
| 20260503225506 | 38 | 112 | 4.3 | 12.2 | 0.14 | 0.39 | 0.39 | 94 | 992.9 |
| 20260503225008 | 38 | 120 | 3.5 | 11.3 | 0.14 | 0.37 | 0.37 | 94 | 993.2 |
| 20260503224604 | 38 | 133 | 4.3 | 11.3 | 0.15 | 0.36 | 0.36 | 94 | 993.5 |
| 20260503224009 | 38 | 350 | 2.6 | 12.2 | 0.16 | 0.35 | 0.35 | 94 | 993.9 |
| 20260503223604 | 38 | 152 | 2.6 | 12.2 | 0.17 | 0.34 | 0.34 | 94 | 994.1 |
| 20260503223006 | 38 | 121 | 3.5 | 12.2 | 0.17 | 0.33 | 0.33 | 94 | 994.4 |
| 20260503222510 | 38 | 166 | 3.5 | 12.2 | 0.19 | 0.32 | 0.32 | 94 | 994.7 |
| 20260503222006 | 38 | 86 | 3.5 | 13.0 | 0.20 | 0.31 | 0.31 | 94 | 994.8 |
| 20260503221511 | 38 | 117 | 4.3 | 13.0 | 0.22 | 0.30 | 0.30 | 94 | 995.1 |
| 20260503221004 | 38 | 109 | 2.6 | 13.0 | 0.20 | 0.28 | 0.28 | 94 | 995.2 |
| 20260503220509 | 38 | 249 | 2.6 | 13.0 | 0.20 | 0.26 | 0.26 | 94 | 995.4 |
| 20260503220004 | 38 | 67 | 3.5 | 13.0 | 0.20 | 0.25 | 0.25 | 94 | 995.6 |
| 20260503215508 | 38 | 84 | 4.3 | 13.9 | 0.20 | 0.24 | 0.24 | 94 | 995.6 |
| 20260503215006 | 38 | 81 | 1.7 | 13.9 | 0.20 | 0.23 | 0.23 | 94 | 995.6 |
| 20260503214508 | 38 | 95 | 1.7 | 7.8 | 0.17 | 0.20 | 0.20 | 94 | 995.8 |
| 20260503214103 | 38 | 118 | 1.7 | 11.3 | 0.16 | 0.19 | 0.19 | 94 | 996.1 |
| 20260503213507 | 38 | 114 | 4.3 | 11.3 | 0.13 | 0.17 | 0.17 | 94 | 996.1 |
| 20260503213004 | 37 | 101 | 2.6 | 11.3 | 0.13 | 0.16 | 0.16 | 94 | 996.1 |
| 20260503212508 | 37 | 106 | 3.5 | 10.4 | 0.10 | 0.13 | 0.13 | 94 | 996.0 |
| 20260503211506 | 37 | 138 | 6.1 | 13.9 | 0.06 | 0.08 | 0.08 | 94 | 996.2 |
| 20260503211105 | 37 | 78 | 3.5 | 13.9 | 0.05 | 0.07 | 0.07 | 94 | 996.3 |
| 20260503210506 | 37 | 122 | 6.1 | 13.0 | 0.03 | 0.06 | 0.06 | 94 | 996.8 |
| 20260503210010 | 37 | 25 | 4.3 | 13.0 | 0.03 | 0.06 | 0.06 | 94 | 997.4 |
| 20260503205504 | 37 | 84 | 7.0 | 14.8 | 0.02 | 0.04 | 0.04 | 94 | 997.8 |
| 20260503205010 | 37 | 109 | 7.0 | 14.8 | 0.01 | 0.03 | 0.03 | 94 | 998.2 |
| 20260503204605 | 37 | 313 | 3.5 | 14.8 | 0.01 | 0.03 | 0.03 | 94 | 998.7 |
| 20260503204004 | 36 | 49 | 3.5 | 14.8 | 0.02 | 0.03 | 0.03 | 93 | 998.8 |
| 20260503203509 | 36 | 94 | 2.6 | 10.4 | 0.02 | 0.03 | 0.03 | 93 | 999.4 |
| 20260503203005 | 36 | 65 | 3.5 | 10.4 | 0.02 | 0.03 | 0.03 | 93 | 999.3 |
| 20260503202509 | 36 | 33 | 2.6 | 10.4 | 0.02 | 0.03 | 0.03 | 93 | 999.3 |
| 20260503202005 | 36 | 48 | 2.6 | 10.4 | 0.01 | 0.02 | 0.02 | 93 | 999.9 |
| 20260503201510 | 36 | 114 | 4.3 | 10.4 | 0.01 | 0.02 | 0.02 | 93 | 1000.6 |
| 20260503201005 | 36 | 138 | 3.5 | 10.4 | 0.01 | 0.02 | 0.02 | 93 | 1001.1 |
| 20260503200510 | 36 | 60 | 2.6 | 10.4 | 0.01 | 0.02 | 0.02 | 93 | 1001.0 |
| 20260503200007 | 36 | 93 | 4.3 | 10.4 | 0.01 | 0.02 | 0.02 | 92 | 1001.3 |
| 20260503195604 | 36 | 15 | 2.6 | 9.6 | 0.01 | 0.02 | 0.02 | 92 | 1001.3 |
| 20260503195008 | 36 | 39 | 3.5 | 11.3 | 0.01 | 0.02 | 0.02 | 92 | 1001.5 |
| 20260503194503 | 36 | 104 | 3.5 | 11.3 | 0.01 | 0.02 | 0.02 | 92 | 1002.0 |
| 20260503194104 | 36 | 190 | 3.5 | 10.4 | 0.00 | 0.02 | 0.02 | 92 | 1002.1 |
| 20260503193506 | 36 | 92 | 2.6 | 7.8 | 0.01 | 0.02 | 0.02 | 92 | 1002.4 |
| 20260503193112 | 36 | 159 | 0.9 | 10.4 | 0.01 | 0.02 | 0.02 | 91 | 1002.0 |
| 20260503192505 | 36 | 83 | 6.1 | 14.8 | 0.01 | 0.02 | 0.02 | 91 | 1001.6 |
| 20260503192009 | 36 | 17 | 5.2 | 12.2 | 0.01 | 0.02 | 0.02 | 90 | 1002.1 |
| 20260503191503 | 37 | 25 | 5.2 | 12.2 | 0.01 | 0.02 | 0.02 | 90 | 1002.4 |
| 20260503191008 | 38 | 33 | 5.2 | 10.4 | 0.01 | 0.02 | 0.02 | 90 | 1002.8 |
| 20260503190504 | 38 | 50 | 3.5 | 9.6 | 0.01 | 0.02 | 0.02 | 89 | 1003.2 |
| 20260503190022 | 39 | 95 | 3.5 | 9.6 | 0.01 | 0.02 | 0.02 | 89 | 1004.0 |
| 20260503185504 | 39 | 164 | 1.7 | 8.7 | 0.01 | 0.02 | 0.02 | 90 | 1004.5 |
| 20260503185009 | 39 | 93 | 3.5 | 8.7 | 0.01 | 0.02 | 0.02 | 89 | 1003.8 |
| 20260503184508 | 39 | 14 | 1.7 | 7.8 | 0.01 | 0.02 | 0.02 | 89 | 1004.1 |
| 20260503184008 | 40 | 26 | 3.5 | 10.4 | 0.01 | 0.02 | 0.02 | 88 | 1004.7 |
| 20260503183503 | 40 | 53 | 2.6 | 10.4 | 0.00 | 0.01 | 0.01 | 87 | 1005.3 |
| 20260503183014 | 40 | 100 | 3.5 | 7.8 | 0.00 | 0.01 | 0.01 | 87 | 1005.7 |
| 20260503182604 | 40 | 35 | 2.6 | 7.0 | 0.00 | 0.01 | 0.01 | 86 | 1005.9 |
| 20260503182007 | 40 | 64 | 1.7 | 8.7 | 0.00 | 0.01 | 0.01 | 85 | 1006.0 |
| 20260503181505 | 40 | 82 | 2.6 | 7.8 | 0.00 | 0.01 | 0.01 | 84 | 1006.0 |
| 20260503181009 | 41 | 357 | 3.5 | 9.6 | 0.00 | 0.01 | 0.01 | 83 | 1005.9 |
| 20260503180505 | 41 | 3 | 4.3 | 8.7 | 0.00 | 0.01 | 0.01 | 82 | 1006.2 |
| 20260503180011 | 41 | 29 | 3.5 | 7.8 | 0.00 | 0.01 | 0.01 | 82 | 1006.6 |
| 20260503175504 | 41 | 19 | 3.5 | 8.7 | 0.00 | 0.01 | 0.01 | 81 | 1007.2 |
| 20260503175010 | 41 | 31 | 3.5 | 8.7 | 0.00 | 0.01 | 0.01 | 80 | 1007.4 |
| 20260503174505 | 42 | 109 | 2.6 | 6.1 | 0.00 | 0.01 | 0.01 | 79 | 1008.0 |
| 20260503174009 | 42 | 54 | 1.7 | 7.0 | 0.00 | 0.01 | 0.01 | 79 | 1008.2 |
| 20260503173503 | 42 | 43 | 2.6 | 7.0 | 0.00 | 0.01 | 0.01 | 79 | 1008.2 |
| 20260503173009 | 42 | 115 | 3.5 | 7.0 | 0.00 | 0.01 | 0.01 | 79 | 1008.2 |
| 20260503172504 | 42 | 65 | 1.7 | 5.2 | 0.00 | 0.01 | 0.01 | 79 | 1008.6 |
| 20260503172008 | 42 | 12 | 1.7 | 5.2 | 0.00 | 0.01 | 0.01 | 79 | 1008.7 |
| 20260503171503 | 42 | 81 | 0.9 | 5.2 | 0.00 | 0.01 | 0.01 | 79 | 1008.8 |
| 20260503171008 | 42 | 72 | 2.6 | 7.0 | 0.00 | 0.01 | 0.01 | 78 | 1008.7 |
| 20260503170503 | 42 | 33 | 3.5 | 7.8 | 0.00 | 0.01 | 0.01 | 78 | 1008.5 |
| 20260503151004 | 46 | 16 | 3.5 | 6.1 | 0.00 | 0.01 | 0.01 | 72 | 1011.0 |
| 20260503150509 | 47 | 359 | 2.6 | 6.1 | 0.00 | 0.01 | 0.01 | 71 | 1011.0 |
| 20260503131009 | 48 | 95 | 1.7 | 7.8 | 0.00 | 0.01 | 0.01 | 70 | 1012.2 |
| 20260503130507 | 48 | 156 | 0.9 | 7.8 | 0.00 | 0.01 | 0.01 | 70 | 1012.2 |
| 20260503110504 | 39 | 89 | 0.0 | 1.7 | 0.00 | 0.01 | 0.01 | 95 | 1014.5 |